Wind_Speed
44 45 45 45 43 41 42 42 40 39 37 35 34 31 30 29 29 32 34 35 36 32 30 37 37 37 41 47 49 51 47 47 52 67 64 65 65 59 58 60 62 63 60 54 52 56 52 36 28 36 44 35 36 36
48 48 48 48 46 44 42 42 39 37 36 33 29 29 28 29 30 32 35 36 34 31 35 36 37 38 40 41 46 48 47 49 48 64 74 69 67 59 60 59 65 63 55 57 54 56 48 42 25 16 26 38 28 15
51 50 49 48 48 45 41 37 35 34 32 30 27 27 26 31 31 32 34 37 32 33 35 35 39 40 42 42 41 44 48 46 45 52 74 74 70 55 59 63 59 59 58 60 57 53 47 50 42 28 31 25 19 4
53 51 51 49 45 41 36 33 31 30 30 26 25 26 27 31 31 31 33 28 30 31 30 31 30 29 33 36 42 42 44 44 43 43 67 79 71 62 59 64 63 55 50 62 58 51 47 51 49 41 33 17 19 29
55 53 50 45 39 35 32 31 29 28 26 24 23 26 27 30 30 29 26 27 28 25 20 25 32 32 31 33 33 37 44 43 42 41 56 76 71 64 58 58 66 60 52 55 64 56 52 45 55 47 42 40 33 41
52 49 44 39 34 31 30 29 26 22 23 23 23 26 28 28 27 27 23 28 25 25 18 17 25 23 20 21 26 32 38 40 44 39 51 68 71 68 61 60 48 46 43 46 50 51 57 53 58 54 51 46 52 41
45 37 36 33 30 29 30 26 22 20 20 22 23 26 26 25 24 25 21 22 25 20 22 15 20 19 18 24 20 22 30 38 42 40 48 59 64 72 70 57 55 54 49 43 47 48 54 52 58 57 53 49 51 43
39 33 32 31 28 26 25 23 20 19 20 20 22 25 23 23 24 24 19 19 21 13 16 19 22 19 11 10 14 9 15 25 35 45 62 63 73 75 73 57 60 59 58 49 46 46 57 56 57 62 53 46 37 38
36 28 27 28 26 23 21 20 18 18 19 20 22 22 22 22 22 20 17 18 17 11 13 17 18 18 9 9 4 1 7 9 22 39 74 69 71 78 65 64 61 60 61 50 43 51 56 60 56 56 58 53 48 32
25 26 24 25 22 20 19 17 16 18 17 20 21 21 21 20 19 16 15 15 12 12 13 12 17 9 7 4 5 4 1 6 19 48 62 51 74 63 68 71 68 58 58 51 45 45 50 55 55 54 63 62 56 48
23 22 22 21 19 18 17 13 16 13 16 18 21 23 22 19 14 12 12 12 9 6 8 11 14 11 9 6 4 4 10 13 28 10 19 47 72 66 67 69 66 63 58 53 47 43 47 48 53 51 55 66 63 58
21 21 19 18 17 16 12 11 14 12 16 19 20 21 20 18 10 9 10 11 3 1 5 9 15 11 11 6 13 15 23 18 10 5 28 37 38 57 58 62 61 63 61 55 48 45 43 39 50 48 51 56 67 56
19 17 18 16 15 12 11 16 12 14 15 18 20 19 17 10 9 7 8 6 2 1 7 7 4 8 7 16 8 6 10 14 16 14 13 35 40 50 57 53 50 53 61 55 51 43 37 35 28 42 41 52 54 59
13 19 16 14 13 9 10 12 10 13 15 18 18 18 12 7 10 9 7 4 7 3 1 4 6 10 1 10 10 9 8 9 8 10 17 25 30 35 38 46 51 52 48 60 52 49 42 39 36 32 42 41 46 51
14 18 15 13 11 9 10 11 11 12 15 18 17 17 8 8 7 9 9 6 5 8 2 3 12 9 7 9 8 9 15 15 17 16 18 25 35 30 37 38 37 37 44 57 65 61 54 48 43 40 38 38 39 39
16 14 13 11 8 7 11 9 11 13 16 16 14 12 7 7 7 9 9 6 4 5 8 5 6 11 7 5 5 6 12 16 20 30 27 30 33 39 39 38 40 40 42 44 46 49 44 44 45 42 42 45 41 39
13 11 10 6 5 9 5 7 11 15 17 16 11 11 9 7 7 8 8 7 3 3 10 10 2 2 2 4 7 10 12 15 21 33 24 28 29 34 38 42 34 34 39 43 44 48 48 46 46 46 47 46 45 43
10 7 6 4 7 4 6 8 10 13 11 13 16 13 11 12 10 9 7 7 2 6 15 11 8 5 1 7 4 5 7 6 14 15 17 27 27 30 39 44 39 40 41 44 44 38 40 43 41 43 46 46 45 45
7 6 4 4 5 4 7 11 13 13 12 14 11 11 11 9 7 5 6 4 4 5 8 11 13 12 8 7 13 7 3 6 15 23 26 30 25 37 45 45 45 44 43 23 50 37 35 38 42 43 43 43 42 41
5 5 4 3 2 5 7 9 13 14 12 10 12 10 10 9 8 3 3 4 3 4 3 6 10 13 13 16 13 4 8 10 20 25 27 30 30 32 38 42 42 42 40 38 30 35 35 38 39 40 42 42 41 41
4 4 5 3 2 4 5 8 17 12 12 15 13 12 12 12 9 5 3 2 2 4 4 3 3 1 2 7 10 8 11 11 30 31 31 29 33 37 36 34 35 38 38 37 35 34 35 37 37 37 37 41 41 40
2 3 4 4 0 3 3 12 15 13 13 17 17 16 13 12 11 9 6 6 5 4 3 5 3 4 5 6 11 19 18 17 18 27 26 28 33 35 33 36 30 34 35 36 37 37 37 38 39 37 37 40 41 44
5 6 9 3 2 2 7 11 11 13 15 18 21 18 18 17 11 6 6 6 8 11 13 11 10 4 5 8 22 20 22 19 18 26 33 22 27 31 33 33 32 32 32 34 35 37 38 40 42 42 41 37 40 44
12 10 7 7 7 8 10 10 10 14 16 14 15 19 14 15 9 6 6 7 11 12 8 8 7 10 7 10 19 21 27 21 19 20 31 29 23 28 32 32 32 32 32 31 33 35 40 41 43 44 42 39 37 40
11 9 10 10 11 11 11 12 10 11 13 17 17 18 14 13 14 12 11 12 10 13 13 12 9 14 13 13 16 17 18 21 18 14 12 19 29 30 31 32 32 29 28 29 30 29 35 38 40 35 36 44 44 40
10 10 8 10 11 11 12 12 12 14 14 15 18 19 8 9 12 17 20 20 21 21 16 9 5 11 16 17 16 17 14 14 12 8 9 14 22 30 30 30 26 26 29 32 34 32 35 40 46 46 43 41 41 42
13 13 11 7 9 10 9 13 17 14 16 17 17 11 10 10 18 16 20 19 24 26 15 7 2 5 16 20 16 16 15 15 16 15 12 10 7 7 12 14 19 24 23 18 20 25 31 39 42 47 54 50 51 53
15 13 10 10 12 12 13 16 18 19 21 21 15 12 12 11 17 18 23 16 23 29 20 12 11 13 21 18 15 12 11 10 8 9 11 12 15 17 19 16 15 16 15 16 18 19 21 24 19 28 52 54 62 56
6 12 14 13 12 13 17 18 13 15 19 21 23 21 18 20 19 16 15 15 21 23 26 22 19 16 18 17 15 16 16 13 10 9 10 12 12 14 14 13 15 17 19 18 16 16 17 17 17 17 18 24 35 52
11 7 12 11 12 14 16 13 13 14 17 17 21 20 22 24 32 20 11 16 15 22 25 24 22 20 18 17 17 15 13 10 9 9 9 10 11 12 13 15 17 17 17 19 21 22 22 21 20 21 22 22 24 25
8 6 7 9 9 13 12 8 10 12 16 19 21 21 20 23 26 29 21 10 20 25 26 22 16 16 15 14 12 12 12 10 8 6 4 4 5 6 8 10 11 13 15 16 17 19 21 23 23 25 26 26 28 30
7 5 6 7 9 10 9 8 10 11 9 8 14 17 19 19 21 23 26 29 30 27 28 30 32 21 14 12 9 9 10 9 8 7 5 6 5 6 8 9 10 12 14 15 16 17 18 18 19 19 20 22 25 26
8 6 5 6 5 4 10 8 8 9 8 7 10 16 16 17 19 22 22 22 24 24 23 24 23 21 22 23 23 19 14 10 6 8 6 4 5 7 11 11 13 12 11 16 17 19 19 20 15 15 17 20 21 22
Wind_Direction
320 316 313 312 310 307 306 304 304 302 300 296 293 288 286 278 277 280 281 283 282 275 280 278 278 277 273 264 256 250 253 253 244 232 226 226 227 221 221 221 219 223 226 225 224 221 218 191 194 210 202 206 205 214
314 313 310 307 306 304 303 304 303 301 299 295 291 290 282 280 283 286 288 288 281 282 286 280 276 274 272 274 258 249 250 260 260 232 223 220 222 219 217 222 221 218 217 224 224 228 216 177 197 212 232 224 210 196
307 304 303 302 302 301 301 301 300 298 295 293 291 285 281 286 292 291 292 292 284 289 290 286 280 275 269 262 257 253 254 256 256 233 219 215 216 215 217 218 218 219 215 213 221 223 222 189 182 211 215 201 238 223
299 299 298 298 299 299 297 298 297 296 295 287 288 280 290 294 296 298 300 295 291 295 293 290 287 286 281 271 255 247 239 238 246 235 218 209 209 209 213 216 211 214 212 217 216 218 219 199 184 198 204 199 182 207
297 296 295 295 295 294 295 296 296 296 287 286 279 289 296 297 302 306 302 298 302 301 289 299 293 291 289 283 263 242 230 232 238 235 219 207 203 203 207 214 213 205 208 210 215 210 210 202 189 192 201 195 204 222
296 297 295 293 292 293 293 294 292 281 290 279 284 296 302 303 309 316 306 308 307 295 306 296 298 301 290 297 275 251 232 235 232 234 216 204 199 197 198 209 201 183 191 211 209 211 211 199 195 192 200 206 211 222
296 295 292 290 288 292 293 294 286 289 281 281 292 300 307 309 313 321 314 312 307 304 321 304 315 307 300 293 267 253 241 230 229 227 206 189 193 196 199 198 182 180 190 198 208 202 204 206 202 197 202 210 217 220
295 291 289 287 289 291 293 291 276 286 285 288 298 308 311 310 316 321 321 312 308 306 327 324 309 311 287 291 305 242 243 233 225 211 193 188 187 196 195 180 184 188 192 194 199 197 204 203 198 201 200 198 209 214
294 293 290 290 291 291 292 288 275 292 288 290 301 312 312 312 315 322 326 316 314 318 322 327 331 332 334 321 181 302 5 232 227 209 186 186 179 198 181 180 189 192 192 190 188 205 209 205 201 196 200 199 208 194
314 302 296 294 293 292 291 285 264 295 282 292 304 311 310 316 316 325 325 312 315 330 337 340 343 338 25 75 180 21 29 150 221 182 188 193 191 189 182 185 190 191 191 190 190 202 211 212 210 198 198 205 209 213
310 308 303 298 296 294 290 270 288 287 285 298 310 319 324 323 317 326 322 314 316 335 12 359 3 10 10 359 152 106 212 169 153 170 202 197 189 191 183 190 194 195 194 193 195 202 210 209 209 206 203 206 209 215
312 303 307 302 296 293 279 273 299 281 295 304 319 319 329 327 326 324 321 325 313 178 8 345 349 359 350 47 131 147 167 163 201 143 188 186 178 195 196 197 199 195 198 199 198 204 212 209 207 203 203 207 208 214
313 316 308 302 297 281 275 307 289 292 305 314 326 332 334 330 335 322 324 324 196 231 338 360 5 13 357 146 174 181 145 146 179 186 161 182 188 189 193 202 204 203 199 201 205 203 206 216 219 206 202 205 208 212
312 314 310 305 295 273 296 308 293 305 314 321 334 336 337 347 349 327 319 301 232 136 25 11 336 335 324 169 182 153 154 160 163 167 194 195 188 191 192 200 208 210 206 198 207 210 204 207 212 205 206 205 208 212
309 319 310 307 295 267 284 309 301 313 317 331 329 340 345 349 337 318 319 359 330 223 206 73 56 53 44 171 207 197 193 199 177 168 181 183 191 182 190 200 212 213 210 204 202 210 214 212 209 215 211 212 212 214
314 310 313 303 291 284 299 294 310 315 329 324 323 335 343 346 350 333 337 336 306 193 163 161 41 50 64 151 217 231 216 227 220 209 191 189 188 196 198 196 206 215 216 210 209 210 213 213 213 214 216 216 219 220
310 316 305 302 299 301 287 315 319 327 338 343 323 319 329 321 320 330 330 307 295 218 173 181 191 20 33 180 85 184 209 224 232 231 246 185 178 181 191 192 186 192 202 205 203 207 208 208 210 212 216 219 219 221
307 305 293 300 308 280 319 320 320 332 341 346 346 329 320 304 305 308 286 291 266 181 185 175 212 235 308 229 261 86 102 183 182 167 171 163 167 178 177 184 186 181 187 198 203 205 206 210 212 215 217 219 221 224
290 282 274 307 301 315 327 335 336 343 351 343 353 1 3 358 341 297 272 273 221 210 206 215 227 233 227 217 238 244 216 213 183 175 166 181 188 153 171 176 179 182 170 183 198 206 206 207 210 210 215 220 222 224
279 283 242 278 322 325 338 343 356 351 357 5 352 354 357 347 340 323 261 260 232 221 206 230 243 244 239 247 242 222 157 168 192 189 183 176 182 171 173 173 177 183 188 204 199 201 202 207 208 210 213 217 220 222
274 246 211 237 247 333 339 1 10 21 29 39 39 27 17 3 0 3 354 307 277 259 241 236 118 112 257 224 240 177 149 148 169 180 179 182 178 173 173 173 181 182 188 193 200 202 203 206 211 214 215 218 218 221
228 173 167 149 28 326 1 12 24 44 49 29 33 25 18 10 358 349 347 2 21 22 1 312 330 139 241 206 196 178 157 143 130 171 170 177 177 175 182 180 188 189 192 197 201 205 206 212 214 212 216 217 219 217
134 143 136 118 75 51 24 26 49 47 41 38 27 24 23 13 9 7 12 2 347 325 319 321 306 272 205 269 181 187 161 144 156 166 173 177 181 184 186 190 192 194 199 201 206 212 215 217 219 220 216 218 220 220
133 127 119 109 81 37 47 46 67 52 36 26 23 23 25 28 40 20 347 345 333 336 310 301 296 261 228 219 182 168 162 146 151 173 185 189 192 193 194 197 200 203 205 209 214 216 216 218 222 225 225 221 220 223
127 122 125 121 61 63 67 42 60 46 25 27 22 18 22 21 17 19 5 2 345 331 318 300 272 243 232 212 208 190 175 174 170 173 179 193 199 200 203 202 203 207 210 217 221 221 220 222 222 219 230 230 224 224
108 109 116 72 75 79 79 72 47 46 44 19 13 358 24 49 37 30 35 28 22 11 352 329 272 198 208 203 198 208 206 201 205 193 192 191 197 201 195 201 205 216 227 235 243 237 230 229 226 224 221 231 229 226
107 99 84 78 65 76 72 64 66 45 23 26 20 37 79 36 28 15 21 36 20 16 19 41 97 188 185 181 180 186 194 194 196 207 220 216 193 185 207 209 217 229 239 244 240 240 239 237 238 236 233 229 231 230
98 89 91 80 96 96 88 75 55 43 36 31 47 60 52 32 14 21 28 38 28 29 43 69 82 123 151 157 162 163 169 178 183 187 189 184 188 215 228 230 232 235 239 247 260 269 268 266 274 248 228 228 229 236
120 91 81 102 86 83 88 81 59 43 42 36 34 43 43 35 24 20 34 38 39 42 56 63 83 109 134 143 140 140 143 151 163 174 181 189 196 207 224 224 233 238 242 245 246 249 254 267 278 272 255 246 243 238
93 92 73 75 79 94 94 88 57 56 49 55 49 58 52 46 43 42 60 59 49 58 65 70 73 87 105 113 116 122 133 148 162 178 197 206 212 216 215 222 230 233 231 233 236 238 240 242 241 240 239 239 241 243
116 119 94 89 107 110 101 81 76 82 63 51 46 44 42 44 47 48 70 89 67 65 57 48 56 75 83 85 91 106 117 126 135 152 175 200 220 223 225 230 240 250 255 258 257 252 252 256 259 256 254 255 247 242
127 118 94 85 92 120 122 88 93 97 69 38 42 39 41 42 48 50 53 55 60 66 67 59 56 76 97 99 96 94 107 112 117 113 141 175 206 227 231 236 250 256 260 267 267 259 258 256 252 252 253 257 258 254
108 93 80 75 57 108 144 121 101 80 71 61 35 28 39 36 36 46 56 65 65 61 59 60 62 65 69 74 77 85 97 105 98 72 87 131 242 243 220 229 225 231 240 245 249 249 265 251 238 238 252 259 258 257
Height
5771 5766 5760 5754 5749 5743 5738 5733 5728 5724 5719 5714 5711 5707 5704 5703 5702 5701 5697 5696 5694 5693 5695 5690 5687 5687 5686 5686 5688 5693 5700 5701 5708 5714 5723 5731 5742 5756 5766 5778 5785 5793 5803 5810 5819 5821 5832 5855 5856 5858 5871 5868 5872 5883
5760 5754 5748 5742 5736 5731 5726 5721 5716 5711 5708 5704 5700 5698 5696 5694 5690 5689 5685 5682 5681 5681 5679 5675 5673 5671 5669 5668 5669 5673 5679 5680 5683 5690 5698 5714 5725 5740 5752 5759 5771 5779 5793 5804 5811 5817 5831 5849 5854 5858 5861 5861 5866 5866
5746 5740 5735 5729 5724 5718 5713 5708 5704 5701 5697 5694 5691 5688 5685 5684 5681 5678 5673 5670 5668 5667 5664 5660 5657 5656 5654 5652 5652 5657 5659 5660 5662 5668 5677 5693 5709 5727 5735 5745 5760 5774 5784 5787 5800 5809 5824 5840 5846 5852 5843 5844 5845 5860
5730 5724 5720 5714 5709 5705 5701 5697 5692 5689 5687 5684 5681 5679 5676 5674 5671 5667 5663 5658 5657 5655 5650 5646 5642 5638 5635 5633 5633 5636 5640 5641 5647 5652 5657 5673 5695 5709 5721 5733 5742 5762 5775 5782 5788 5802 5815 5828 5836 5844 5848 5849 5846 5859
5714 5709 5704 5699 5696 5692 5689 5686 5682 5680 5677 5675 5672 5671 5668 5665 5661 5657 5652 5649 5646 5644 5640 5634 5627 5624 5622 5619 5617 5618 5621 5626 5632 5637 5643 5660 5681 5696 5711 5721 5736 5748 5761 5768 5777 5794 5805 5822 5830 5837 5840 5846 5846 5856
5697 5693 5689 5686 5684 5681 5678 5675 5672 5669 5668 5667 5664 5662 5659 5656 5652 5649 5645 5640 5636 5632 5631 5627 5622 5616 5613 5609 5605 5606 5609 5613 5618 5624 5633 5649 5668 5681 5697 5710 5733 5741 5750 5756 5766 5780 5796 5814 5822 5830 5836 5842 5847 5851
5682 5679 5677 5674 5672 5670 5669 5666 5664 5662 5660 5659 5657 5655 5652 5648 5644 5641 5638 5633 5627 5623 5620 5617 5614 5609 5604 5601 5598 5597 5597 5600 5606 5613 5622 5641 5654 5668 5684 5704 5720 5730 5738 5749 5756 5771 5785 5801 5815 5826 5832 5836 5840 5845
5670 5667 5665 5664 5662 5659 5659 5657 5656 5655 5654 5653 5651 5648 5645 5641 5637 5634 5630 5626 5621 5618 5614 5612 5609 5603 5597 5594 5591 5589 5588 5588 5592 5601 5611 5625 5641 5655 5673 5705 5710 5723 5729 5739 5750 5760 5772 5787 5802 5813 5824 5832 5835 5835
5658 5655 5655 5655 5653 5651 5651 5649 5649 5649 5648 5647 5645 5642 5639 5635 5632 5629 5624 5620 5617 5615 5611 5609 5605 5600 5594 5589 5587 5587 5585 5586 5589 5591 5603 5615 5630 5642 5684 5693 5702 5715 5725 5734 5746 5755 5766 5778 5790 5804 5818 5825 5827 5831
5651 5650 5648 5648 5646 5645 5643 5643 5643 5643 5642 5641 5639 5636 5632 5629 5626 5624 5620 5617 5613 5611 5608 5607 5603 5600 5596 5591 5591 5590 5591 5591 5591 5598 5610 5620 5630 5654 5671 5680 5692 5708 5721 5732 5740 5751 5762 5775 5787 5799 5808 5817 5825 5829
5646 5645 5643 5642 5641 5639 5638 5638 5638 5637 5637 5636 5634 5630 5627 5624 5621 5619 5616 5613 5612 5611 5609 5607 5604 5600 5598 5596 5595 5598 5598 5601 5608 5615 5617 5622 5639 5658 5671 5684 5694 5707 5719 5730 5739 5748 5758 5769 5781 5793 5801 5810 5819 5823
5643 5641 5639 5638 5636 5635 5634 5634 5633 5633 5632 5631 5629 5626 5623 5620 5618 5616 5613 5612 5610 5610 5609 5607 5605 5603 5600 5600 5600 5605 5606 5613 5615 5616 5623 5637 5648 5659 5672 5682 5691 5704 5718 5729 5737 5747 5757 5766 5774 5785 5794 5802 5812 5819
5639 5638 5636 5634 5633 5632 5632 5631 5629 5629 5629 5627 5625 5622 5619 5617 5615 5613 5612 5612 5611 5610 5609 5607 5607 5605 5605 5607 5605 5605 5608 5614 5619 5622 5631 5642 5649 5658 5667 5676 5689 5702 5716 5729 5737 5746 5756 5766 5773 5782 5789 5795 5803 5811
5637 5635 5632 5631 5630 5630 5630 5628 5627 5627 5626 5624 5622 5619 5616 5615 5613 5612 5611 5610 5610 5609 5609 5608 5607 5605 5605 5608 5608 5610 5613 5615 5619 5625 5632 5642 5651 5662 5669 5678 5686 5699 5712 5724 5734 5742 5752 5760 5770 5778 5783 5788 5794 5803
5634 5632 5630 5629 5628 5628 5627 5626 5626 5625 5622 5621 5619 5616 5614 5613 5612 5610 5609 5609 5608 5609 5610 5610 5609 5608 5608 5609 5610 5615 5620 5622 5627 5630 5634 5640 5651 5660 5667 5675 5685 5696 5706 5715 5725 5734 5744 5754 5763 5770 5779 5784 5791 5798
5631 5629 5627 5627 5626 5626 5626 5625 5624 5622 5621 5618 5616 5614 5613 5612 5611 5610 5610 5609 5607 5607 5611 5612 5612 5612 5613 5613 5614 5615 5618 5622 5625 5631 5634 5639 5643 5653 5665 5674 5683 5691 5701 5712 5722 5732 5738 5747 5755 5763 5771 5777 5785 5791
5628 5627 5626 5626 5626 5625 5624 5624 5622 5621 5619 5616 5614 5612 5611 5611 5610 5609 5609 5608 5608 5608 5610 5612 5614 5614 5615 5614 5614 5618 5619 5620 5621 5625 5625 5633 5640 5649 5658 5669 5678 5686 5695 5707 5716 5721 5728 5736 5744 5753 5760 5767 5776 5781
5626 5625 5625 5625 5625 5624 5624 5623 5622 5620 5618 5615 5613 5611 5609 5609 5608 5608 5607 5607 5607 5607 5608 5611 5613 5614 5615 5614 5613 5611 5612 5618 5621 5626 5629 5635 5640 5646 5654 5663 5674 5683 5691 5700 5707 5714 5724 5733 5741 5748 5754 5760 5767 5773
5624 5624 5625 5625 5625 5625 5625 5623 5621 5619 5617 5614 5612 5610 5608 5606 5605 5605 5605 5606 5606 5606 5607 5610 5612 5614 5616 5616 5615 5616 5618 5620 5623 5626 5629 5634 5630 5632 5647 5659 5670 5679 5688 5690 5698 5713 5721 5728 5734 5741 5747 5754 5761 5766
5623 5623 5624 5625 5625 5625 5625 5624 5622 5619 5616 5614 5612 5609 5607 5606 5605 5605 5605 5605 5606 5606 5607 5607 5609 5612 5615 5616 5617 5617 5619 5621 5624 5627 5629 5632 5640 5647 5653 5660 5668 5676 5685 5690 5695 5707 5715 5721 5728 5734 5740 5746 5752 5759
5622 5622 5623 5625 5626 5626 5625 5624 5622 5619 5617 5614 5613 5611 5609 5607 5606 5605 5605 5605 5605 5606 5606 5607 5610 5610 5612 5612 5614 5616 5618 5619 5622 5626 5630 5636 5643 5650 5656 5661 5667 5673 5681 5689 5696 5705 5712 5717 5722 5728 5735 5740 5746 5752
5621 5622 5623 5625 5627 5627 5626 5625 5623 5622 5621 5619 5616 5613 5611 5608 5606 5605 5604 5605 5605 5605 5604 5605 5607 5609 5609 5610 5613 5617 5620 5620 5623 5627 5635 5639 5642 5648 5655 5662 5669 5674 5681 5687 5693 5699 5706 5712 5717 5723 5728 5734 5740 5745
5622 5623 5625 5627 5628 5628 5629 5626 5626 5625 5623 5621 5619 5616 5613 5610 5608 5607 5606 5605 5605 5604 5604 5604 5605 5608 5609 5610 5613 5617 5620 5622 5625 5628 5635 5641 5644 5650 5656 5661 5667 5673 5679 5685 5692 5697 5702 5707 5712 5717 5722 5727 5733 5738
5623 5626 5628 5629 5630 5630 5629 5628 5628 5627 5626 5624 5622 5619 5616 5613 5611 5610 5609 5608 5606 5604 5602 5602 5602 5603 5608 5610 5613 5616 5621 5624 5627 5633 5636 5641 5646 5651 5656 5662 5667 5672 5677 5683 5688 5694 5698 5703 5708 5712 5716 5721 5726 5733
5628 5631 5631 5631 5632 5632 5632 5631 5630 5629 5628 5626 5624 5621 5619 5617 5615 5613 5610 5608 5605 5603 5599 5597 5597 5598 5602 5607 5613 5616 5621 5626 5630 5632 5635 5639 5644 5650 5655 5661 5666 5672 5677 5682 5686 5691 5694 5698 5703 5707 5710 5715 5719 5724
5631 5633 5634 5634 5635 5635 5635 5635 5634 5632 5631 5629 5626 5623 5621 5620 5618 5616 5613 5610 5606 5601 5596 5593 5591 5593 5597 5604 5609 5615 5620 5625 5630 5633 5636 5640 5645 5651 5657 5662 5668 5672 5674 5676 5679 5683 5687 5689 5693 5698 5701 5705 5711 5715
5635 5637 5638 5638 5637 5638 5638 5638 5637 5636 5634 5631 5628 5625 5624 5624 5621 5618 5615 5612 5608 5602 5595 5592 5591 5592 5596 5603 5609 5615 5620 5626 5630 5634 5639 5643 5649 5654 5656 5660 5663 5666 5669 5672 5673 5676 5679 5681 5683 5687 5693 5696 5700 5702
5640 5641 5641 5641 5641 5641 5642 5642 5641 5639 5637 5634 5632 5630 5628 5626 5624 5622 5618 5615 5613 5607 5601 5598 5597 5597 5601 5606 5612 5617 5622 5627 5632 5636 5640 5644 5648 5651 5654 5658 5663 5665 5667 5669 5670 5671 5672 5673 5672 5670 5675 5681 5688 5691
5643 5644 5644 5645 5645 5645 5645 5645 5645 5643 5642 5640 5637 5635 5633 5630 5627 5625 5623 5621 5619 5616 5611 5607 5605 5606 5610 5613 5616 5620 5624 5629 5633 5637 5640 5643 5646 5649 5651 5655 5659 5661 5664 5665 5667 5669 5669 5669 5669 5670 5672 5675 5678 5682
5647 5648 5648 5648 5649 5649 5649 5650 5649 5648 5648 5646 5644 5642 5639 5637 5633 5628 5627 5626 5625 5622 5621 5620 5619 5619 5619 5621 5623 5626 5629 5632 5634 5637 5638 5641 5643 5646 5648 5650 5652 5654 5658 5660 5662 5663 5664 5666 5667 5669 5670 5672 5674 5676
5650 5651 5652 5652 5652 5653 5654 5653 5653 5653 5653 5652 5650 5649 5647 5643 5640 5638 5633 5631 5629 5629 5629 5627 5626 5627 5627 5628 5629 5631 5632 5635 5637 5638 5640 5641 5643 5645 5647 5648 5649 5651 5653 5654 5656 5658 5659 5661 5662 5664 5666 5667 5668 5670
5653 5653 5655 5655 5656 5657 5657 5656 5657 5657 5657 5656 5654 5653 5653 5651 5649 5646 5643 5639 5638 5638 5637 5636 5635 5634 5635 5635 5636 5637 5639 5640 5641 5642 5642 5644 5645 5645 5646 5647 5648 5649 5650 5650 5651 5652 5654 5656 5657 5658 5659 5660 5661 5662
5655 5656 5657 5659 5659 5657 5659 5660 5660 5659 5659 5659 5658 5657 5656 5655 5653 5652 5651 5649 5647 5646 5644 5644 5644 5643 5643 5643 5642 5643 5644 5645 5645 5645 5645 5646 5646 5645 5646 5648 5648 5650 5650 5651 5651 5651 5652 5652 5654 5654 5655 5655 5656 5657